Weather Roundup
Issued by NWS Corpus Christi, TX

Home | Current Version | Previous Version | Text Only | Print | Product List | Glossary On
Versions: 1 2 3 4 5 6 7 8 9 10 11 12 13 14 15 16 17 18 19 20 21 22 23 24 25 26 27 28 29 30 31 32 33 34 35 36 37 38 39 40 41 42 43 44 45 46 47 48 49 50
450
ASUS44 KCRP 241410
HRRCRP

SOUTH TEXAS REGIONAL WEATHER ROUNDUP
NATIONAL WEATHER SERVICE CORPUS CHRISTI TX
900 AM CDT MON APR 24 2017


TXZ229>244-241500-
...CORPUS CHRISTI AREA OBSERVATIONS...

CITY           SKY/WX    TMP DP  RH WIND       PRES   REMARKS
CORPUS CHRISTI MOSUNNY   65  52  62 CALM      29.96S
NAS CORPUS CHR MOSUNNY   74  53  48 SE6       29.96S
ROCKPORT       SUNNY     71  52  50 E7        29.97S
KINGSVILLE NAS MOSUNNY   66  56  70 SW6       29.98R
ALICE          SUNNY     65  53  65 S5        29.97R
ORANGE GROVE     N/A     65  56  72 S6        29.97S
FALFURRIAS     SUNNY     65  52  64 S3        29.97S
$$

...VICTORIA AREA OBSERVATIONS...

CITY           SKY/WX    TMP DP  RH WIND       PRES   REMARKS
VICTORIA       MOSUNNY   63  53  70 CALM      29.98S
BEEVILLE       FAIR      63  55  75 E5        29.97R
PLEASANTON     MOSUNNY   57  48  73 CALM      29.97F
SAN ANTONIO    PTSUNNY   62  48  60 S7        29.98R
$$

...LAREDO AREA OBSERVATIONS...

CITY           SKY/WX    TMP DP  RH WIND       PRES   REMARKS
LAREDO         MOSUNNY   67  51  56 SE12      29.94F
COTULLA        MOSUNNY   64  47  53 S8        29.96S
DEL RIO        NOT AVBL
MCALLEN        MOSUNNY   69  56  62 S6        29.98R
HEBBRONVILLE   SUNNY     64  51  63 CALM      29.98S
$$

...OTHER TEXAS OBSERVATIONS...

CITY           SKY/WX    TMP DP  RH WIND       PRES   REMARKS
BROWNSVILLE    SUNNY     72  58  61 SE6       29.97F
HOUSTON        MOSUNNY   63  52  67 CALM      29.99S
COL. STATION   SUNNY     62  51  67 CALM      29.99R
AUSTIN         MOSUNNY   58  48  69 CALM      29.97F
WACO           SUNNY     58  52  80 S6        29.97S
FORT WORTH     MOSUNNY   61  49  64 S7        29.94S
WICHITA FALLS  MOSUNNY   58  43  57 S15       29.91S
LUBBOCK        PTSUNNY   59  35  40 S15       29.83F
EL PASO        MOSUNNY   69  26  20 S5        29.91R
$$

...MARINE OBSERVATIONS...

STATION/POSITION TIME  SKY/WX   TEMP    WIND        PRES    VSBY  WAVE   SWELL
                                AIR SEA DIR/SP/G                  HT/PER HT/PER
                 (UTC)          (F)     (DEG/KT/KT) (MB)    (MI)  (FT/S) (FT/S)
PORT ARANSAS     1400            71 75  110/  5/  6 1014.8R
BUOY 90 E PORT A 1350            72 75  120/  2/  2 1015.1R         2/ 4   2/ 4
BUOY 45 SE BAFFI 1350            72     110/  4/  6 1013.9S         2/ 5   2/ 5
BUOY 200 E PT IS 1350            72 79  330/  4/  6 1014.9R         3/ 6   3/ 6
BUOY 15 E GALVES 1350            69 74  330/  4/  8 1015.3R         1
$$




USA.gov is the U.S. government's official web portal to all federal, state and local government web resources and services.